PY2UEP-1 Weather Reports


time (UTC)temp
C
wind
direction
speed
KPH
gust
KPH
rain 1hr
cm
rain 24hr
cm
rain mn
cm
humidity
%
barometer
mb
20260509162454 28 324 11.3 25.7 0.00 0.00 0.00 50 1016.0
20260509161954 28 324 12.9 29.0 0.00 0.00 0.00 49 1016.0
20260509161454 28 324 14.5 33.8 0.00 0.00 0.00 49 1016.2
20260509160954 28 332 9.7 25.7 0.00 0.00 0.00 51 1016.2
20260509160454 28 341 9.7 25.7 0.00 0.00 0.00 53 1016.2
20260509155956 27 329 9.7 25.7 0.00 0.00 0.00 54 1016.2
20260509155454 28 336 9.7 22.5 0.00 0.00 0.00 54 1016.4
20260509154954 28 334 8.0 19.3 0.00 0.00 0.00 56 1016.4
20260509154454 27 338 4.8 14.5 0.00 0.00 0.00 57 1016.5
20260509153954 27 348 6.4 17.7 0.00 0.00 0.00 57 1016.6
20260509153454 27 335 6.4 12.9 0.00 0.00 0.00 57 1016.6
20260509152954 28 356 6.4 14.5 0.00 0.00 0.00 55 1016.6
20260509152454 28 329 11.3 24.1 0.00 0.00 0.00 54 1016.8
20260509151954 28 320 14.5 25.7 0.00 0.00 0.00 54 1016.9
20260509151454 27 312 9.7 22.5 0.00 0.00 0.00 55 1016.9
20260509150954 27 332 11.3 27.4 0.00 0.00 0.00 55 1017.1
20260509150454 27 316 12.9 29.0 0.00 0.00 0.00 55 1016.8
20260509145954 27 335 11.3 29.0 0.00 0.00 0.00 56 1017.1
20260509145454 27 348 4.8 16.1 0.00 0.00 0.00 58 1017.1
20260509144954 27 332 6.4 16.1 0.00 0.00 0.00 59 1017.2
20260509144454 27 325 8.0 16.1 0.00 0.00 0.00 60 1017.2
20260509143954 26 332 6.4 17.7 0.00 0.00 0.00 60 1017.5
20260509143454 26 344 4.8 12.9 0.00 0.00 0.00 60 1017.5
20260509142954 26 349 6.4 17.7 0.00 0.00 0.00 61 1017.6
20260509142454 26 343 6.4 19.3 0.00 0.00 0.00 62 1017.6
20260509141954 26 333 8.0 16.1 0.00 0.00 0.00 62 1017.7
20260509141454 26 329 6.4 16.1 0.00 0.00 0.00 62 1017.6
20260509140954 26 336 8.0 19.3 0.00 0.00 0.00 61 1017.8
20260509140454 26 336 8.0 17.7 0.00 0.00 0.00 62 1017.7
20260509135954 26 338 9.7 20.9 0.00 0.00 0.00 61 1017.8
20260509135454 26 329 11.3 32.2 0.00 0.00 0.00 60 1017.7
20260509134954 26 331 8.0 16.1 0.00 0.00 0.00 61 1017.7
20260509134454 26 332 8.0 20.9 0.00 0.00 0.00 62 1017.6
20260509133954 25 336 8.0 25.7 0.00 0.00 0.00 63 1017.8
20260509133454 25 333 8.0 24.1 0.00 0.00 0.00 63 1017.9
20260509132954 25 339 8.0 20.9 0.00 0.00 0.00 64 1017.8
20260509132454 25 331 9.7 20.9 0.00 0.00 0.00 64 1018.0
20260509131954 25 322 11.3 29.0 0.00 0.00 0.00 63 1018.1
20260509131454 25 341 8.0 20.9 0.00 0.00 0.00 64 1018.0
20260509130954 25 333 6.4 17.7 0.00 0.00 0.00 64 1018.0
20260509130454 25 343 6.4 24.1 0.00 0.00 0.00 66 1018.0
20260509125954 24 357 6.4 14.5 0.00 0.00 0.00 68 1017.9
20260509125454 24 8 4.8 12.9 0.00 0.00 0.00 69 1017.8
20260509124954 23 356 4.8 12.9 0.00 0.00 0.00 70 1017.9
20260509124454 23 353 6.4 17.7 0.00 0.00 0.00 71 1017.8
20260509123954 23 11 4.8 12.9 0.00 0.00 0.00 73 1017.8
20260509123454 22 10 6.4 11.3 0.00 0.00 0.00 74 1017.9
20260509122954 22 2 6.4 12.9 0.00 0.00 0.00 75 1018.0
20260509122454 22 7 4.8 11.3 0.00 0.00 0.00 76 1017.8
20260509121954 22 13 6.4 16.1 0.00 0.00 0.00 77 1017.9
20260509121454 22 10 4.8 9.7 0.00 0.00 0.00 78 1017.9
20260509120954 22 14 4.8 11.3 0.00 0.00 0.00 78 1017.7
20260509120454 21 15 4.8 11.3 0.00 0.00 0.00 78 1017.8
20260509115954 22 14 4.8 8.0 0.00 0.00 0.00 78 1017.7
20260509115454 22 17 4.8 9.7 0.00 0.00 0.00 78 1017.7
20260509114954 21 20 4.8 14.5 0.00 0.00 0.00 78 1017.6
20260509114454 21 12 4.8 9.7 0.00 0.00 0.00 80 1017.6
20260509113954 21 22 4.8 9.7 0.00 0.00 0.00 81 1017.2
20260509113454 21 19 4.8 9.7 0.00 0.00 0.00 82 1017.2
20260509112954 21 15 4.8 9.7 0.00 0.00 0.00 82 1017.2
20260509112454 21 13 4.8 11.3 0.00 0.00 0.00 83 1017.4
20260509111954 20 25 4.8 14.5 0.00 0.00 0.00 84 1017.0
20260509111454 20 19 4.8 12.9 0.00 0.00 0.00 84 1017.0
20260509110954 20 15 4.8 8.0 0.00 0.00 0.00 85 1016.9
20260509110454 20 26 4.8 11.3 0.00 0.00 0.00 86 1016.7
20260509105954 20 8 3.2 8.0 0.00 0.00 0.00 87 1016.7
20260509105454 20 26 6.4 12.9 0.00 0.00 0.00 87 1016.6
20260509104954 20 33 6.4 12.9 0.00 0.00 0.00 87 1016.6
20260509104454 20 28 6.4 11.3 0.00 0.00 0.00 87 1016.6
20260509103954 20 28 6.4 11.3 0.00 0.00 0.00 87 1016.6
20260509103454 20 30 8.0 14.5 0.00 0.00 0.00 88 1016.4
20260509102954 20 28 6.4 11.3 0.00 0.00 0.00 88 1016.3
20260509102454 19 28 6.4 12.9 0.00 0.00 0.00 88 1016.2
20260509101954 19 32 8.0 11.3 0.00 0.00 0.00 89 1016.3
20260509101454 19 25 6.4 11.3 0.00 0.00 0.00 89 1016.2
20260509100954 19 36 4.8 9.7 0.00 0.00 0.00 90 1016.1
20260509100454 19 29 4.8 8.0 0.00 0.00 0.00 90 1015.8
20260509095954 19 3 1.6 4.8 0.00 0.00 0.00 90 1015.8
20260509095454 19 23 1.6 6.4 0.00 0.00 0.00 90 1015.6
20260509094954 19 360 0.0 3.2 0.00 0.00 0.00 91 1015.5
20260509094454 19 351 1.6 3.2 0.00 0.00 0.00 91 1015.5
20260509093954 19 24 3.2 8.0 0.00 0.00 0.00 91 1015.3
20260509093454 19 9 1.6 3.2 0.00 0.00 0.00 91 1015.2
20260509092954 19 27 4.8 8.0 0.00 0.00 0.00 91 1015.2
20260509092454 19 32 4.8 8.0 0.00 0.00 0.00 91 1015.2
20260509091954 19 28 6.4 9.7 0.00 0.00 0.00 91 1015.1
20260509091454 19 30 6.4 8.0 0.00 0.00 0.00 91 1015.0
20260509090954 19 31 4.8 8.0 0.00 0.00 0.00 91 1015.0
20260509090454 19 34 4.8 9.7 0.00 0.00 0.00 90 1014.8
20260509085954 19 37 4.8 12.9 0.00 0.00 0.00 90 1014.8
20260509085454 19 34 4.8 8.0 0.00 0.00 0.00 90 1014.8
20260509084954 19 36 3.2 6.4 0.00 0.00 0.00 90 1015.0
20260509084454 19 42 3.2 4.8 0.00 0.00 0.00 90 1014.8
20260509083955 19 48 1.6 4.8 0.00 0.00 0.00 90 1014.7
20260509083454 19 57 1.6 4.8 0.00 0.00 0.00 90 1014.7
20260509082954 19 59 3.2 4.8 0.00 0.00 0.00 90 1014.6
20260509082454 19 47 3.2 4.8 0.00 0.00 0.00 90 1014.6
20260509081954 19 68 1.6 3.2 0.00 0.00 0.00 90 1014.3
20260509081454 19 69 3.2 4.8 0.00 0.00 0.00 90 1014.3
20260509080954 19 64 3.2 4.8 0.00 0.00 0.00 90 1014.2
20260509080454 19 64 1.6 3.2 0.00 0.00 0.00 89 1014.2
20260509075954 20 64 3.2 4.8 0.00 0.00 0.00 88 1014.2
20260509075454 20 124 1.6 3.2 0.00 0.00 0.00 88 1014.2
20260509074954 20 203 3.2 8.0 0.00 0.00 0.00 88 1014.1
20260509074454 20 204 3.2 9.7 0.00 0.00 0.00 88 1014.2
20260509073954 20 195 4.8 8.0 0.00 0.00 0.00 88 1014.1
20260509073454 20 201 4.8 9.7 0.00 0.00 0.00 88 1014.3
20260509072954 20 197 4.8 9.7 0.00 0.00 0.00 87 1014.7
20260509072454 20 208 6.4 14.5 0.00 0.00 0.00 87 1014.8
20260509071954 20 219 8.0 14.5 0.00 0.00 0.00 86 1014.8
20260509071454 20 210 6.4 17.7 0.00 0.00 0.00 86 1014.8
20260509070954 20 210 6.4 16.1 0.00 0.00 0.00 85 1015.0
20260509070454 20 208 6.4 14.5 0.00 0.00 0.00 85 1014.8
20260509065954 20 220 9.7 20.9 0.00 0.00 0.00 85 1015.0
20260509065454 20 222 8.0 17.7 0.00 0.00 0.00 85 1015.0
20260509064954 20 214 8.0 16.1 0.00 0.00 0.00 85 1014.9
20260509064454 20 220 6.4 11.3 0.00 0.00 0.00 85 1014.9
20260509063953 20 202 4.8 11.3 0.00 0.00 0.00 85 1014.9
20260509063453 20 216 6.4 11.3 0.00 0.00 0.00 85 1014.9
20260509062954 20 213 6.4 11.3 0.00 0.00 0.00 85 1014.9
20260509062453 20 207 4.8 9.7 0.00 0.00 0.00 84 1014.9
20260509061953 20 226 6.4 12.9 0.00 0.00 0.00 84 1015.0
20260509061454 20 220 6.4 9.7 0.00 0.00 0.00 84 1014.9
20260509060953 20 206 4.8 9.7 0.00 0.00 0.00 83 1014.6
20260509060453 20 210 3.2 9.7 0.00 0.00 0.00 83 1014.8
20260509055954 20 206 6.4 14.5 0.00 0.00 0.00 83 1014.9
20260509055453 20 232 6.4 11.3 0.00 0.00 0.00 84 1015.3
20260509054953 20 223 9.7 19.3 0.00 0.00 0.00 84 1015.3
20260509054454 20 230 8.0 12.9 0.00 0.00 0.00 84 1015.0
20260509053953 20 228 8.0 14.5 0.00 0.00 0.00 84 1015.1
20260509053453 20 222 8.0 14.5 0.00 0.00 0.00 83 1015.1
20260509052954 20 215 6.4 12.9 0.00 0.00 0.00 83 1015.0
20260509052453 20 211 6.4 11.3 0.00 0.00 0.00 83 1014.9
20260509051953 20 199 6.4 9.7 0.00 0.00 0.00 84 1014.8
20260509051454 20 204 6.4 11.3 0.00 0.00 0.00 83 1014.8
20260509050953 20 215 6.4 12.9 0.00 0.00 0.00 83 1015.0
20260509050453 20 216 4.8 9.7 0.00 0.00 0.00 83 1015.0
20260509045954 20 208 4.8 11.3 0.00 0.00 0.00 83 1015.0
20260509045453 21 212 4.8 11.3 0.00 0.00 0.00 83 1015.0
20260509044953 21 215 4.8 11.3 0.00 0.00 0.00 82 1015.0
20260509044453 21 215 6.4 11.3 0.00 0.00 0.00 81 1015.0
20260509043953 21 212 4.8 11.3 0.00 0.00 0.00 80 1015.0
20260509043453 21 220 9.7 17.7 0.00 0.00 0.00 80 1015.0
20260509042953 21 224 8.0 17.7 0.00 0.00 0.00 78 1014.8
20260509042453 21 232 8.0 16.1 0.00 0.00 0.00 75 1015.0
20260509041953 21 205 4.8 11.3 0.00 0.00 0.00 72 1014.8
20260509041453 22 220 6.4 16.1 0.00 0.00 0.00 71 1014.8
20260509040953 22 226 8.0 12.9 0.00 0.00 0.00 70 1015.0
20260509040456 22 240 8.0 14.5 0.00 0.00 0.00 69 1015.0
20260509035954 22 238 6.4 16.1 0.00 0.00 0.00 68 1014.8
20260509035453 22 251 6.4 16.1 0.00 0.00 0.00 67 1015.0
20260509034953 22 260 6.4 14.5 0.00 0.00 0.00 67 1014.8
20260509034453 22 244 6.4 14.5 0.00 0.00 0.00 66 1015.0
20260509033953 22 242 11.3 19.3 0.00 0.00 0.00 65 1014.7
20260509033453 22 242 11.3 19.3 0.00 0.00 0.00 65 1014.7
20260509032954 23 238 6.4 12.9 0.00 0.00 0.00 65 1014.7
20260509032453 23 273 4.8 8.0 0.00 0.00 0.00 64 1014.6
20260509031953 23 309 9.7 17.7 0.00 0.00 0.00 64 1014.4
20260509031453 22 327 4.8 11.3 0.00 0.00 0.00 66 1014.2
20260509030953 22 332 3.2 9.7 0.00 0.00 0.00 66 1014.2
20260509030453 22 332 3.2 12.9 0.00 0.00 0.00 66 1014.2
20260509025953 22 329 3.2 8.0 0.00 0.00 0.00 66 1014.2
20260509025453 22 341 4.8 11.3 0.00 0.00 0.00 67 1014.2
20260509024953 22 343 3.2 16.1 0.00 0.00 0.00 67 1014.2
20260509024453 22 336 4.8 14.5 0.00 0.00 0.00 68 1014.2
20260509023953 22 332 3.2 8.0 0.00 0.00 0.00 67 1014.4
20260509023453 22 328 3.2 6.4 0.00 0.00 0.00 67 1014.4
20260509022953 22 338 3.2 4.8 0.00 0.00 0.00 68 1014.4
20260509022453 22 348 3.2 8.0 0.00 0.00 0.00 68 1014.4
20260509021953 22 346 3.2 6.4 0.00 0.00 0.00 67 1014.4
20260509021453 22 325 4.8 8.0 0.00 0.00 0.00 67 1014.6
20260509020953 22 324 3.2 4.8 0.00 0.00 0.00 67 1014.4
20260509020453 22 345 3.2 4.8 0.00 0.00 0.00 67 1014.4
20260509015953 22 350 3.2 4.8 0.00 0.00 0.00 67 1014.4
20260509015453 22 343 3.2 9.7 0.00 0.00 0.00 66 1014.4
20260509014953 22 334 3.2 8.0 0.00 0.00 0.00 66 1014.6
20260509014453 22 353 3.2 8.0 0.00 0.00 0.00 66 1014.4
20260509013953 22 332 3.2 6.4 0.00 0.00 0.00 66 1014.6
20260509013453 22 331 1.6 4.8 0.00 0.00 0.00 65 1014.6
20260509012953 22 359 1.6 4.8 0.00 0.00 0.00 65 1014.4
20260509012453 22 7 1.6 6.4 0.00 0.00 0.00 64 1014.4
20260509011953 23 352 4.8 9.7 0.00 0.00 0.00 63 1014.4
20260509011453 23 346 3.2 9.7 0.00 0.00 0.00 64 1014.4
20260509010953 22 351 3.2 6.4 0.00 0.00 0.00 64 1014.4
20260509010454 22 337 3.2 8.0 0.00 0.00 0.00 64 1014.3
20260509005953 22 356 3.2 8.0 0.00 0.00 0.00 64 1014.2
20260509005453 22 340 3.2 4.8 0.00 0.00 0.00 64 1014.2
20260509004953 22 337 3.2 6.4 0.00 0.00 0.00 64 1014.2
20260509004453 22 340 3.2 8.0 0.00 0.00 0.00 64 1014.2
20260509003954 22 331 3.2 6.4 0.00 0.00 0.00 65 1014.0
20260509003453 22 334 3.2 6.4 0.00 0.00 0.00 65 1013.9
20260509002953 22 351 3.2 4.8 0.00 0.00 0.00 65 1013.8
20260509002453 22 4 3.2 4.8 0.00 0.00 0.00 64 1013.7
20260509001953 22 4 3.2 4.8 0.00 0.00 0.00 64 1013.7
20260509001453 22 359 3.2 6.4 0.00 0.00 0.00 63 1013.8
20260509000953 23 6 3.2 8.0 0.00 0.00 0.00 62 1013.7
20260509000455 23 2 3.2 8.0 0.00 0.00 0.00 62 1013.5
20260508235953 23 1 4.8 11.3 0.00 0.00 0.00 61 1013.6
20260508235453 23 0 3.2 8.0 0.00 0.00 0.00 59 1013.6
20260508234953 23 359 3.2 8.0 0.00 0.00 0.00 59 1013.6
20260508234453 23 348 3.2 12.9 0.00 0.00 0.00 59 1013.5
20260508233953 23 351 4.8 9.7 0.00 0.00 0.00 59 1013.5
20260508233453 23 340 3.2 8.0 0.00 0.00 0.00 59 1013.6
20260508232953 23 340 3.2 8.0 0.00 0.00 0.00 59 1013.5
20260508232453 23 332 3.2 11.3 0.00 0.00 0.00 58 1013.6
20260508231953 23 328 4.8 12.9 0.00 0.00 0.00 58 1013.5
20260508231453 23 328 3.2 9.7 0.00 0.00 0.00 58 1013.6
20260508230953 23 339 3.2 8.0 0.00 0.00 0.00 58 1013.6
20260508230453 24 335 3.2 4.8 0.00 0.00 0.00 57 1013.5
20260508225953 24 329 4.8 12.9 0.00 0.00 0.00 55 1013.4
20260508225453 25 323 4.8 9.7 0.00 0.00 0.00 54 1013.6
20260508224953 25 327 4.8 11.3 0.00 0.00 0.00 54 1013.6
20260508224453 25 322 6.4 14.5 0.00 0.00 0.00 54 1013.4
20260508223953 25 322 6.4 12.9 0.00 0.00 0.00 53 1013.4
20260508223453 25 321 8.0 12.9 0.00 0.00 0.00 53 1013.4
20260508222953 25 321 6.4 11.3 0.00 0.00 0.00 53 1013.4
20260508222454 25 320 8.0 16.1 0.00 0.00 0.00 52 1013.4
20260508221953 25 320 8.0 14.5 0.00 0.00 0.00 53 1013.3
20260508221453 25 323 4.8 11.3 0.00 0.00 0.00 53 1013.2
20260508220953 25 326 4.8 11.3 0.00 0.00 0.00 53 1013.4
20260508220453 25 325 6.4 12.9 0.00 0.00 0.00 52 1013.4
20260508215953 25 325 6.4 12.9 0.00 0.00 0.00 51 1013.4
20260508215453 25 322 9.7 16.1 0.00 0.00 0.00 51 1013.4
20260508214953 26 322 9.7 17.7 0.00 0.00 0.00 51 1013.2
20260508214453 26 321 9.7 17.7 0.00 0.00 0.00 51 1013.2
20260508213953 26 321 9.7 16.1 0.00 0.00 0.00 51 1013.2
20260508213454 26 320 9.7 14.5 0.00 0.00 0.00 52 1013.2
20260508212953 26 317 8.0 16.1 0.00 0.00 0.00 52 1013.0
20260508212453 25 316 9.7 14.5 0.00 0.00 0.00 53 1013.0
20260508211953 25 318 4.8 9.7 0.00 0.00 0.00 56 1013.0
20260508211453 25 325 4.8 8.0 0.00 0.00 0.00 56 1012.6
20260508210953 25 317 3.2 8.0 0.00 0.00 0.00 55 1012.5
20260508210453 25 334 1.6 6.4 0.00 0.00 0.00 54 1012.5
20260508205953 26 320 3.2 6.4 0.00 0.00 0.00 53 1012.5
20260508205453 26 330 3.2 9.7 0.00 0.00 0.00 52 1012.4
20260508204953 26 323 3.2 8.0 0.00 0.00 0.00 51 1012.4
20260508204453 27 325 4.8 11.3 0.00 0.00 0.00 48 1012.4
20260508203953 27 320 8.0 17.7 0.00 0.00 0.00 48 1012.5
20260508203453 27 323 9.7 16.1 0.00 0.00 0.00 47 1012.6
20260508202953 27 316 8.0 16.1 0.00 0.00 0.00 47 1012.5
20260508202453 27 318 9.7 19.3 0.00 0.00 0.00 46 1012.5
20260508201953 27 319 9.7 16.1 0.00 0.00 0.00 46 1012.5
20260508201453 27 320 8.0 16.1 0.00 0.00 0.00 46 1012.7
20260508200953 27 318 11.3 19.3 0.00 0.00 0.00 45 1012.7
20260508200453 28 313 8.0 19.3 0.00 0.00 0.00 45 1012.7
20260508195953 28 315 11.3 24.1 0.00 0.00 0.00 45 1012.7
20260508195453 28 318 9.7 17.7 0.00 0.00 0.00 45 1012.6
20260508194953 28 316 11.3 22.5 0.00 0.00 0.00 44 1012.5
20260508194453 28 320 9.7 17.7 0.00 0.00 0.00 44 1012.4
20260508193953 28 312 11.3 19.3 0.00 0.00 0.00 43 1012.4
20260508193453 28 313 11.3 25.7 0.00 0.00 0.00 43 1012.4
20260508192953 28 319 12.9 20.9 0.00 0.00 0.00 43 1012.4
20260508192453 28 316 12.9 24.1 0.00 0.00 0.00 43 1012.4
20260508191953 28 319 11.3 22.5 0.00 0.00 0.00 43 1012.4
20260508191453 28 312 12.9 30.6 0.00 0.00 0.00 42 1012.2
20260508190953 28 313 12.9 22.5 0.00 0.00 0.00 42 1012.2
20260508190453 28 318 12.9 24.1 0.00 0.00 0.00 42 1012.1
20260508185953 28 321 14.5 27.4 0.00 0.00 0.00 42 1012.1
20260508185453 28 319 11.3 30.6 0.00 0.00 0.00 42 1012.2
20260508184953 28 321 14.5 25.7 0.00 0.00 0.00 41 1012.4
20260508184453 29 319 14.5 27.4 0.00 0.00 0.00 41 1012.4
20260508183952 29 314 14.5 33.8 0.00 0.00 0.00 41 1012.3
20260508183453 29 318 16.1 29.0 0.00 0.00 0.00 41 1012.4
20260508182953 29 315 16.1 30.6 0.00 0.00 0.00 40 1012.2
20260508182453 29 314 19.3 38.6 0.00 0.00 0.00 40 1012.3
20260508181953 29 312 14.5 32.2 0.00 0.00 0.00 40 1012.4
20260508181453 29 314 12.9 22.5 0.00 0.00 0.00 40 1012.4
20260508180952 29 327 14.5 32.2 0.00 0.00 0.00 40 1012.3
20260508180453 29 325 17.7 40.2 0.00 0.00 0.00 39 1012.4
20260508175952 30 319 22.5 40.2 0.00 0.00 0.00 39 1012.2
20260508175452 30 318 17.7 37.0 0.00 0.00 0.00 40 1012.3
20260508174953 30 322 14.5 29.0 0.00 0.00 0.00 39 1012.3
20260508174452 30 319 20.9 46.7 0.00 0.00 0.00 38 1012.2
20260508173952 30 321 14.5 30.6 0.00 0.00 0.00 38 1012.1
20260508173453 30 325 12.9 25.7 0.00 0.00 0.00 38 1012.2
20260508172952 30 320 17.7 35.4 0.00 0.00 0.00 38 1012.3
20260508172452 30 319 17.7 33.8 0.00 0.00 0.00 37 1012.3
20260508171953 30 320 17.7 43.5 0.00 0.00 0.00 38 1012.2
20260508171452 30 316 17.7 35.4 0.00 0.00 0.00 37 1012.2
20260508170952 30 321 17.7 33.8 0.00 0.00 0.00 38 1012.3
20260508170453 30 334 12.9 33.8 0.00 0.00 0.00 39 1012.2
20260508165952 29 329 14.5 33.8 0.00 0.00 0.00 42 1012.4
20260508165452 30 324 14.5 41.8 0.00 0.00 0.00 41 1012.4
20260508164953 30 331 14.5 37.0 0.00 0.00 0.00 40 1012.4
20260508164452 30 325 14.5 43.5 0.00 0.00 0.00 40 1012.4
20260508163952 29 330 14.5 30.6 0.00 0.00 0.00 41 1012.4
20260508163452 29 333 12.9 35.4 0.00 0.00 0.00 41 1012.6
20260508162952 29 330 12.9 33.8 0.00 0.00 0.00 40 1012.6